sat.trackr.live / text

‹ back to catalog

LDPE-2

NORAD 54219 · 2022-144A

PAYLOAD ACTIVE UNKNOWN

§ Identity

Operator
Country
US
Launch date
2022-11-01
Launch site
AFETR
Launch vehicle
Mass (kg)
RCS (m²)

Purposes: comms

External: N2YO · Heavens-Above · Gunter

§ Orbital elements

Epoch: 2026-09-20T00:01:40.719072Z

Period
1,456.19 min
Inclination
5.8241°
Eccentricity
0.0000338
Mean motion
0.98888373 rev/d
Perigee alt
36,177.5 km
Apogee alt
36,180.4 km
Semi-major
42,557.1 km
B*
0.0000e+0
RAAN
62.7357°
Arg perigee
321.8241°
Mean anomaly
19.8765°
Rev number
1,278

§ Raw data

LDPE-21 54219U 22144A   26263.00116573  .00000035  00000+0  00000+0 0  99922 54219   5.8241  62.7357 0000338 321.8241  19.8765  0.98888373 12786

JSON: /api/v1/satellites/54219 · /tle

For live sub-satellite position, see the globe view (requires WebGL).

§ Visibility from observer

Set your observer location to see the next 7 days of passes ≥ 10°. The values pass through the URL so the page stays shareable.

No JS? Fill the form by hand. The geolocation button needs JavaScript.